{"data":{"norad_id":53272,"intl_designator":"2022-086AG","name":"STARLINK-4122","alt_names":[],"object_type":"PAYLOAD","status":"ACTIVE","operator":null,"country":"US","launch_date":"2022-07-24","launch_site_code":"AFETR","launch_vehicle":null,"mission":null,"orbit_class":"UNKNOWN","rcs_meters":null,"size_class":null,"mass_kg":null,"dimensions":null,"purposes":["comms"],"wikipedia_slug":null,"has_3d_model":false,"image_url":null,"decayed_at":null,"tle_current":{"epoch":"2026-09-19T22:17:38.670720Z","epoch_age_seconds":124783,"freshness":"FRESH","line1":"1 53272U 22086AG  26262.92891980 -.00000277  00000+0  29345-5 0  9995","line2":"2 53272  53.1603  16.0393 0001019  80.6015 279.5102 15.34397355230749","mean_motion":15.34397355,"eccentricity":0.0001019,"inclination_deg":53.1603,"raan_deg":16.0393,"arg_perigee_deg":80.6015,"mean_anomaly_deg":279.5102,"bstar":2.9345e-6,"rev_number":23074,"period_min":93.847919856457,"perigee_km":462.01401929424,"apogee_km":463.40818413737,"semimajor_km":6840.8481017158,"source":"CELESTRAK","updated_at":"2026-09-20T09:00:40.217924Z"}}}